Flag for Germany Weather past 2 weeks in Wismar, Mecklenburg-Western Pomerania, Germany

Now
57 °F

Light rain. Overcast.


Feels Like: 57 °F
Forecast: 54 / 70 °F
Wind: 3 mph from West

Location: Schwerin

Current Time: Aug 28, 2015 at 3:03:20 AM

Latest Report: Aug 28, 2015 at 2:00 AM


Visibility: 4 mi

Pressure: 29.86 "Hg

Humidity: 98%

Dew point: 56 °F

Location of WismarLocation

Historic Weather in Wismar — Graph

°F

Wismar temperature yesterday

Maximum temperature yesterday: 69 °F (at 12:00 AM)
Minimum temperature yesterday: 59 °F (at 9:00 PM)
Average temperature yesterday: 64 °F

Past Weeks' High & Low Weather Summary

 TemperatureHumidityPressure
High87 °F (Aug 14, 4:00 PM)100% (Aug 16, 6:00 AM)30.24 "Hg (Aug 16, 6:00 AM)
Low56 °F (Aug 26, 6:00 AM)41% (Aug 13, 6:00 PM)29.66 "Hg (Aug 15, 4:00 AM)
Average67 °F77%29.91 "Hg
* Reported Aug 13 2:00 AM — Aug 28 2:00 AM, Wismar, Weather by CustomWeather, © 2015

Note: Actual official high and low records may vary slightly from our data, if they occured in-between our weather recording intervals... More about our weather records

Advertising

Wismar weather history for previous 24 hours

 ConditionsComfort  
Time TempWeatherWind HumidityBarometerVisibility
2:00 AM
Fri, Aug 28
57 °FLight rain. Overcast.3 mph98%29.86 "Hg4 mi
1:00 AM58 °FLight rain. Low clouds.3 mph97%29.85 "Hg4 mi
10:00 PM
Thu, Aug 27
59 °FLight rain. Low clouds.3 mph99%29.84 "Hg3 mi
9:00 PM59 °FLight rain. Overcast.3 mph98%29.83 "Hg2 mi
8:00 PM60 °FLight freezing rain. Low clouds.2 mph98%29.83 "Hg2 mi
7:00 PM59 °FLight rain. Overcast.2 mph97%29.84 "Hg3 mi
6:00 PM59 °FRain. Overcast.5 mph96%29.85 "Hg1 mi
4:00 PM68 °FLight rain. Overcast.3 mph75%29.83 "Hg9 mi
3:00 PM68 °FOvercast.5 mph78%29.83 "Hg12 mi
2:00 PM69 °FDrizzle. Overcast.7 mph73%29.83 "Hg16 mi
1:00 PM67 °FLight rain. Passing clouds.6 mph83%29.83 "Hg11 mi
12:00 PM66 °FLight rain. Scattered clouds.5 mph87%29.83 "Hg9 mi
11:00 AM64 °FScattered clouds.3 mph85%29.81 "Hg13 mi
10:00 AM62 °FLight rain. Overcast.3 mph89%29.81 "Hg9 mi
9:00 AM61 °FLight rain. Overcast.3 mph87%29.80 "Hg6 mi
8:00 AM62 °FLight rain. Overcast.3 mph82%29.78 "Hg6 mi
7:00 AM64 °FLight rain. Overcast.5 mph67%29.78 "Hg9 mi
4:00 AM65 °FOvercast.3 mph70%29.79 "Hg16 mi
3:00 AM66 °FOvercast.3 mph70%29.81 "Hg19 mi
Weather by CustomWeather, © 2015

See weather overviewHow to use our weather pages